Location: Eldred Sherwood Park Lake Dam
(42.9416°N, 93.5655°W)
Time: 08:45:28
(UTC+00:00)

Tiros 1 - Pass Details

Date: 09 November 2024
Orbit: 622 x 653 km, 48.4° (Epoch: 06 December)

Event Time Altitude Azimuth Distance (km) Brightness Sun altitude
Rises 00:08:58 0° 214° (SSW) 2,940 11.2 -13.4°
Reaches altitude 10° 00:11:26 10° 204° (SSW) 2,038 10.2 -13.8°
Maximum altitude 00:15:40 34° 141° (SE) 1,077 8.0 -14.6°
Enters shadow 00:17:41 24° 96° (E) 1,363 8.2 -15.0°
